Regional Weather Roundup
Issued by NWS Grand Forks, ND

Home | Current Version | Previous Version | Text Only | Print | Product List | Glossary Off
Versions: 1 2 3 4 5 6 7 8 9 10 11 12 13 14 15 16 17 18 19 20 21 22 23 24 25 26 27 28 29 30 31 32 33 34 35 36 37 38 39 40 41 42 43 44 45 46 47 48 49 50

000
ASUS43 KFGF 250531
RWRFGF
PRAIRIE TO PINES  WEATHER ROUNDUP
NATIONAL WEATHER SERVICE EASTERN NORTH DAKOTA/GRAND FORKS ND
1200 AM CDT WED APR 25 2018

 **SATELLITE DATA USED TO AUGMENT SKY COVER AT AUTOMATED STATIONS**
 *****  WEATHER ACROSS EASTERN NORTH DAKOTA  *****

CITY           SKY/WX    TMP DP  RH WIND       PRES   REMARKS
GRAND FORKS    FAIR      31  29  92 S8        30.31F WCI  23
GRAND FRKS AFB FAIR      33  28  83 S7        30.30F
GRAND FRKS NWS   N/A     38  30  71 SW5       30.28F
DEVILS LAKE    FAIR      36  28  73 CALM      30.30F
FARGO          FAIR      37  28  70 CALM      30.33F
WAHPETON ARPT  FAIR      37  28  70 N7        30.32F
$$

 ***** WEATHER ACROSS CENTRAL AND WESTERN NORTH DAKOTA  *****

CITY           SKY/WX    TMP DP  RH WIND       PRES   REMARKS
BISMARCK       FAIR      41  27  57 CALM      30.33F
MINOT          FAIR      48  24  39 SW9       30.25F
JAMESTOWN      FAIR      34  29  82 S5        30.32F
MINOT AFB      FAIR      43  26  50 SW12      30.23F
GARRISON         N/A     37  27  67 S5        30.29F
WILLISTON      FAIR      45  33  63 SW6       30.25F
DICKINSON      FAIR      39  27  62 SW10      30.31F
HETTINGER      FAIR      33  25  72 W3        30.37F
$$

 *****  OTHER AIRPORT OBSERVATIONS IN OUR AREA  *****

CITY           SKY/WX    TMP DP  RH WIND       PRES   REMARKS
WALHALLA       FAIR      41  25  52 S7        30.27F
GRAFTON AIRPOR FAIR      32  25  74 S7        30.31F
VALLEY CITY AR FAIR      36  36 100 SW3       30.34F
CANDO          FAIR      39  28  65 S9        30.29F
CAVALIER APRT    N/A     37  27  65 S6        30.28F
GWINNER          N/A     37  30  75 CALM      30.33F
SHEYENNE NWR     N/A     29  29 100 CALM      29.95S
ROLLA          FAIR      37  28  70 SW9       30.25F
 ***** THE ABOVE OBSERVATIONS ARE NON NWS ARE NOT QUALITY
       CONTROLLED AND MAY MIS-REPORT RAIN FOR SNOW...
$$

  *****  WEATHER ACROSS NORTHERN MINNESOTA  *****

CITY           SKY/WX    TMP DP  RH WIND       PRES   REMARKS
FLAG ISLAND    FAIR      32  21  64 S3        30.28F
WARROAD        FAIR      34  27  75 S3        30.30F
ROSEAU         FAIR      34  27  75 S7        30.29F
HALLOCK        FAIR      30  23  74 S7        30.28F WCI  23
THF RVR FALLS  FAIR      34  27  75 CALM      30.32F
BAUDETTE       FAIR      29  24  82 CALM      30.29F
WASKISH        FAIR      27  21  80 CALM      30.31S
CROOKSTON      FAIR      36  28  75 S3        30.32F
STEPHEN NDAWN    N/A     34  27  75 S3          N/A
GREENBUSH NDAW   N/A     34  30  86 S3          N/A
$$
  *****  WEATHER ACROSS CENTRAL AND WEST MINNESOTA  *****

CITY           SKY/WX    TMP DP  RH WIND       PRES   REMARKS
FOSSTON        FAIR      27  18  69 CALM      30.32F
BEMIDJI        FAIR      25  19  79 CALM      30.31S
PARK RAPIDS    FAIR      33  22  63 N6        30.30F
ELBOW LAKE     FAIR      33  28  79 N5        30.31F
WADENA         FAIR      34  25  69 CALM      30.31F
DETROIT LAKES  FAIR      36  30  80 N5        30.32S
MOORHEAD       FAIR      36  27  69 CALM      30.33F
FERGUS FALLS   FAIR      37  27  65 NE5       30.30F
MORRIS MN      FAIR      36  30  80 NW7       30.29F
STAPLES        FAIR      36  21  55 N5        30.30F
$$
  *****  WEATHER ELSEWHERE ACROSS MINNESOTA  *****

CITY           SKY/WX    TMP DP  RH WIND       PRES   REMARKS
DULUTH         FAIR      34  22  61 NW3       30.27R
INTRNTL FALLS  FAIR      25  23  92 CALM      30.30S
ELY            FAIR      27  21  80 CALM      30.28S
CLOQUET        FAIR      34  19  55 NW5       30.28S
WHEATON        FAIR      36  30  80 NW3       30.34F
BRAINERD       FAIR      35  23  61 N7        30.30R
HIBBING        FAIR      28  21  75 NW3       30.28S
ALEXANDRIA     FAIR      39  27  62 N8        30.30S
SAINT CLOUD    FAIR      41  28  60 N12       30.27R
MINNEAPOLIS    FAIR      48  27  44 N16       30.23R
$$

  *****  WEATHER ACROSS SOUTH DAKOTA  *****

CITY           SKY/WX    TMP DP  RH WIND       PRES   REMARKS
SIOUX FALLS    FAIR      41  32  70 N13       30.29S
BROOKINGS      FAIR      36  30  79 N6        30.31F
WATERTOWN      FAIR      34  31  88 NW6       30.32S
HURON          FAIR      34  31  88 NW6       30.35R
SISSETON         N/A     35  31  85 NW9       30.32F
ABERDEEN       FAIR      35  29  78 NW5       30.36S
MITCHELL       FAIR      40  35  83 N7        30.34S
PIERRE         FAIR      37  29  72 N5        30.36S
MOBRIDGE       FAIR      34  28  79 CALM      30.34F
RAPID CITY     FAIR      34  23  64 NW8       30.40F
$$

  *****  SOME WEATHER IN NEARBY STATES *****

CITY           SKY/WX    TMP DP  RH WIND       PRES   REMARKS
GLASGOW MT     FAIR      47  30  51 S7        30.21F
GREAT FALLS MT FAIR      49  23  36 S18       30.18F
CHEYENNE WY    MOCLDY    32  26  78 N7        30.41F
SCOTTSBLUFF NE FAIR      30  28  92 CALM      30.43F
OMAHA NE       CLOUDY    50  46  86 N12       30.22R
DES MOINES IA  FAIR      54  42  64 N15       30.16S
DAVENPORT IA   FAIR      58  39  49 N14       30.04S
CHICAGO IL     FAIR      48  44  86 N10       30.02R
EAU CLAIRE WI  FAIR      37  34  89 N3        30.19S
LA CROSSE WI   MOCLDY    51  35  54 N8        30.18S
$$

  *****  SOME NATIONAL WEATHER *****

CITY           SKY/WX    TMP DP  RH WIND       PRES   REMARKS
LA GUARDIA NY  LGT RAIN  56  51  84 SE10      30.12F
RALEIGH NC     MOCLDY    62  62 100 CALM      29.79F
ATLANTA GA     FAIR      58  55  90 W9        29.91S
NEW ORLEANS LA FAIR      70  60  70 N5        30.05R
OKLAHOMA CITY  CLOUDY    61  48  62 N21G26    30.13F
ALBUQUERQUE NM MOCLDY    56  38  50 E33G44    30.11R
SALT LAKE CITY FAIR      54  39  57 SW5       30.26S
LOS ANGELES CA FAIR      56  52  86 SW5       30.02R
BOISE ID       FAIR      57  29  34 SE8       30.21R
SEATTLE WA     MOCLDY    60  40  47 N12       30.06R
$$

*** WEATHER ACROSS MANITOBA...SASKATCHEWAN AND ONTARIO ***
                ***ONTARIO***

CITY           SKY/WX    TMP DP  RH WIND       PRES   REMARKS
GERALDTON      PTCLDY    28  21  74 N5        30.23S WCI  23
THUNDER BAY    PTCLDY    34  23  64 N2        30.27
SIOUX LOOKOUT  CLEAR     23  21  93 CALM      30.25F
TORONTO        LGT RAIN  50  48  93 E8        30.01F FOG
BIG TROUT LK   CLEAR     25  18  74 S7        30.14F WCI  17
PICKLE LAKE    NOT AVBL
DRYDEN         CLEAR     32  21  64 S7        30.26F
KENORA         CLEAR     36  19  51 SW5       30.26
$$
                *** MANITOBA***

CITY           SKY/WX    TMP DP  RH WIND       PRES   REMARKS
BRANDON        CLEAR     43  30  61 SW13      30.17F
DAUPHIN        CLEAR     54  28  37 SW15G21   30.06F HAZE
ISLAND LAKE    MOCLDY    41  23  48 S12G20    30.03
PILOT MOUND      N/A     36  27  69 S12         N/A
THE PAS        CLOUDY    50  32  50 S10       29.85F
THOMPSON       MOCLDY    39  27  60 SW9G17    29.78F
WINNIPEG       CLEAR     41  23  48 S13       30.24F
LYNN LAKE      MOCLDY    48  28  46 W13G18    29.72S
CHURCHILL      LGT RAIN  32  32 100 S15       29.70F WCI  22
GILLAM         CLOUDY    39  25  56 S16G24    29.79F
$$
                ***SASKATCHEWAN***

CITY           SKY/WX    TMP DP  RH WIND       PRES   REMARKS
ESTEVAN        MOCLDY    45  27  49 SW13      30.19F
KINDERSLEY     CLEAR     45  27  49 SW8       29.95F
LLOYDMINSTER   CLOUDY    48  32  53 NW6       29.92F
PRINCE ALBERT  MOCLDY    50  32  50 SW7       29.91F
REGINA         CLOUDY    46  28  49 S13       30.10F
YORKTON        CLEAR     46  28  49 S10       30.05F
N. BATTLEFORD  CLEAR     45  28  53 CALM      29.93F
LA RONGE       CLOUDY    55  23  28 W8        29.81S
SASKATOON      MOCLDY    50  28  43 S10       29.95F
SWIFT CURRENT  PTCLDY    50  27  40 S18G25    30.04F
$$
NOTE: THESE ARE AUTOMATED STATIONS WITH LIMITED QUALITY CONTROL
      "FAIR" INDICATES FEW OR NO CLOUDS BELOW 12,000 FEET WITH NO
      SIGNIFICANT WEATHER AND/OR OBSTRUCTIONS TO VISIBILITY.
      SKY/WX - SKY CONDITION AND SIGNIFICANT WEATHER.
      TMP - AIR TEMPERATURE.    DP   - DEWPOINT TEMPERATURE.
      RH  - RELATIVE HUMIDITY.  PRES - PRESSURE.
      HX  - HEAT INDEX.         WCI  - WIND CHILL INDEX.
$



USA.gov is the U.S. government's official web portal to all federal, state and local government web resources and services.